Temperature
20 20 21 21 18 16 18 18 19 18 18 18 18 18 17 17 17 17 17 17 17 17 17 17 17 17 17 17 17 17 17 17 17 17 17 17 17 17 17 17 17 17 17 17 17 17 18 18 18
21 21 21 20 17 17 18 18 18 19 19 19 18 18 17 17 17 17 17 17 17 17 17 17 17 17 17 17 17 17 17 17 17 17 17 17 17 17 17 17 17 17 17 17 17 17 17 17 17
21 21 21 17 17 17 19 19 18 19 19 19 18 17 17 17 17 17 17 17 17 17 17 17 17 17 17 16 16 16 16 17 17 17 17 17 17 17 17 17 17 17 17 17 17 17 17 17 17
21 21 20 17 18 18 18 18 18 19 19 19 18 17 17 17 17 17 17 17 17 17 17 17 17 17 17 16 16 16 16 16 16 17 16 16 17 17 17 16 17 17 17 17 17 17 17 17 17
21 21 17 17 18 18 18 19 19 19 18 18 18 17 17 17 17 17 17 17 17 17 17 17 17 16 16 16 16 16 16 16 16 16 16 16 16 16 16 16 16 16 17 16 16 16 16 16 17
21 18 16 17 18 19 19 19 19 18 18 18 17 17 17 17 17 17 17 17 17 17 17 17 17 16 16 16 16 16 16 16 16 16 16 16 16 16 16 16 16 16 16 16 16 16 16 16 16
20 16 17 17 18 19 19 19 19 18 18 18 18 16 17 17 17 17 17 17 17 17 17 16 16 16 16 16 16 16 16 16 16 16 16 16 16 16 16 16 16 16 16 16 16 16 16 16 16
21 16 17 17 18 19 19 19 19 19 18 18 18 17 17 17 17 17 17 17 17 17 16 16 16 16 16 16 16 16 16 16 16 16 16 16 16 16 16 16 16 16 16 16 16 16 16 16 16
21 16 17 18 18 19 19 19 19 19 18 18 18 18 17 17 17 17 17 17 17 16 16 16 16 16 16 16 16 16 16 16 16 16 16 16 16 16 16 15 15 16 16 16 16 16 16 16 16
20 17 18 19 19 19 19 19 19 19 18 17 17 17 17 17 17 17 17 17 17 16 16 16 16 16 16 16 16 16 16 16 16 16 16 16 16 16 16 15 15 15 16 16 15 15 15 16 16
19 18 19 19 20 20 19 19 19 18 17 18 18 17 17 17 17 17 17 17 17 16 16 16 16 16 16 16 16 16 16 16 16 16 15 15 15 15 15 15 15 15 16 16 15 15 15 15 15
19 19 19 20 20 20 19 19 18 18 18 19 19 18 17 17 17 17 17 17 17 16 16 16 16 16 16 16 16 16 16 16 15 15 15 15 15 15 15 15 15 15 15 15 15 15 15 15 15
19 19 20 20 20 20 19 19 18 18 19 19 18 18 17 17 17 17 17 17 17 17 16 16 16 16 16 16 16 16 15 15 15 15 15 15 15 15 15 15 15 15 15 15 15 15 15 15 15
20 20 20 20 20 20 19 18 18 18 18 18 18 18 17 17 17 17 17 17 17 17 16 16 16 16 16 16 16 15 15 15 15 15 15 15 15 15 15 15 15 15 15 15 15 15 15 15 15
20 19 19 19 20 20 19 18 18 18 18 18 18 17 17 17 17 17 17 17 17 17 16 16 16 16 16 16 16 15 15 15 15 15 15 15 15 15 15 15 15 15 15 15 15 15 15 15 15
19 18 18 19 19 19 19 18 18 18 18 17 17 17 17 17 17 17 17 17 17 17 17 16 16 16 16 16 16 15 15 15 15 15 15 15 15 15 15 15 15 15 15 15 15 15 15 15 15
18 18 18 19 19 19 19 18 18 18 18 17 17 17 17 17 17 17 17 17 17 17 17 16 16 16 16 16 16 15 15 15 15 15 15 15 15 15 15 15 15 15 15 15 15 15 15 14 14
19 18 19 19 19 19 18 18 17 17 17 17 17 18 18 18 18 18 17 17 17 17 17 16 16 16 16 16 16 15 15 15 15 15 15 15 15 15 15 15 14 14 14 14 14 14 14 14 14
19 19 19 19 19 18 18 18 17 17 17 17 17 17 18 18 18 18 17 17 17 17 17 16 16 16 16 16 16 15 15 15 15 15 15 15 15 15 15 14 14 14 14 14 14 14 14 14 14
19 19 19 19 19 19 18 18 17 17 16 17 17 17 18 18 18 18 18 17 17 17 17 16 16 16 16 16 16 15 15 15 15 15 15 15 15 15 14 14 14 14 14 14 14 14 14 14 14
19 19 19 19 19 18 18 17 17 17 17 17 17 18 18 18 18 18 18 17 17 17 17 17 16 16 16 16 16 15 15 15 15 15 15 15 14 14 14 14 14 14 14 14 14 14 14 14 14
19 20 20 19 18 17 18 17 17 16 16 16 17 17 18 18 18 18 18 17 17 17 17 17 16 16 16 16 16 15 15 15 15 15 15 15 15 14 14 14 14 14 14 14 14 14 14 14 14
19 19 19 19 18 17 17 16 16 16 16 16 16 17 18 18 18 18 18 18 17 17 17 17 16 16 16 16 15 15 15 15 15 15 15 15 15 15 14 14 14 14 14 14 14 14 14 14 14
19 18 17 16 16 17 17 16 16 15 16 16 16 17 18 18 18 18 18 18 17 17 17 17 16 16 16 16 15 15 15 15 15 15 15 15 15 15 15 15 14 14 14 14 14 14 14 14 14
18 17 16 17 16 16 17 16 16 17 16 17 17 17 18 18 18 18 18 18 17 17 17 17 16 16 16 16 15 15 15 15 15 15 15 15 15 15 15 15 14 14 14 14 14 14 14 14 14
18 17 17 17 16 16 17 16 16 17 17 17 17 18 18 18 18 18 18 18 17 17 17 17 16 16 16 16 15 15 15 15 15 15 15 15 15 15 15 15 15 15 14 14 14 14 14 14 14
18 17 17 16 16 16 16 16 17 17 17 16 17 17 17 18 18 18 18 18 18 17 17 17 17 16 16 16 16 15 15 15 15 15 15 15 15 15 15 15 15 14 14 14 14 14 14 14 14
18 16 15 16 16 16 17 16 16 17 17 16 15 16 17 18 18 18 18 18 18 17 17 17 17 16 16 16 16 16 15 15 15 15 15 15 15 15 15 14 14 14 14 14 14 14 14 14 14
17 16 15 14 15 15 16 16 17 16 16 16 16 17 17 18 18 18 18 18 17 17 17 17 17 16 16 16 16 16 16 15 15 15 15 15 15 15 15 15 14 14 14 14 14 14 14 14 14
18 17 15 16 15 14 15 15 17 16 16 16 17 17 17 18 18 18 18 18 17 17 17 17 17 16 16 16 16 16 16 15 15 15 15 15 15 15 15 15 14 14 14 14 14 14 14 14 14
Wind_Speed
5 3 3 4 6 6 3 2 1 2 3 2 4 6 6 4 2 2 1 1 1 1 2 3 4 5 6 6 7 8 9 9 8 8 9 9 9 9 9 10 11 11 11 11 11 11 11 11 11
1 2 4 5 5 4 2 2 2 2 3 3 4 5 5 4 2 2 0 1 1 1 2 3 4 5 6 6 7 8 8 8 8 8 8 8 9 9 9 10 10 11 10 10 10 11 11 11 11
2 3 4 5 4 3 2 1 2 3 3 3 4 5 4 2 1 1 1 2 2 2 3 3 4 5 6 6 7 7 7 7 8 8 8 8 8 9 9 10 10 10 10 10 10 10 11 11 11
3 5 5 6 5 2 2 1 3 4 3 5 4 4 3 3 0 1 2 4 3 2 3 3 4 5 5 6 6 6 7 7 7 7 7 8 8 9 9 9 9 10 10 9 9 9 10 10 11
4 5 6 5 3 3 1 1 2 4 3 4 4 4 3 4 3 5 4 4 3 2 3 3 4 5 5 5 6 6 6 7 7 7 7 8 8 8 8 9 9 9 9 9 9 9 9 10 10
5 5 5 3 2 2 2 2 3 4 3 3 4 3 1 2 3 3 4 3 2 2 3 4 5 5 5 5 5 5 6 6 6 7 7 7 7 8 8 8 9 9 9 9 9 9 9 10 10
5 5 4 4 2 2 1 2 4 4 3 2 3 4 1 1 1 2 3 3 2 3 3 4 5 6 5 5 4 5 5 5 5 6 7 8 8 8 8 8 8 8 8 9 9 9 9 9 10
5 5 4 2 2 1 1 2 3 3 3 3 3 4 3 2 2 4 4 4 3 3 3 3 5 5 5 5 5 5 5 5 5 6 7 8 8 9 9 8 8 8 8 8 9 9 10 10 10
4 5 3 3 3 1 0 3 2 3 4 3 2 2 2 5 5 5 4 3 3 3 3 2 3 4 4 4 5 6 6 6 6 6 7 8 8 8 7 7 7 8 8 8 9 10 11 11 11
5 4 2 2 4 3 2 2 2 3 4 3 3 4 5 6 6 5 3 2 1 1 2 2 2 3 3 3 5 6 6 7 7 6 6 6 6 7 7 7 8 8 8 9 10 11 11 10 10
4 4 2 1 2 3 3 2 2 4 1 3 4 5 5 5 4 4 2 1 1 0 1 1 1 2 3 3 4 5 5 6 6 6 7 6 6 6 7 6 7 8 8 8 8 9 9 9 9
4 2 2 2 2 3 3 3 3 1 2 2 5 7 6 5 4 3 3 1 1 1 1 1 2 3 3 3 3 3 3 4 4 5 5 5 4 4 4 4 5 5 6 6 7 7 8 9 9
3 2 2 3 4 3 3 3 3 1 1 5 6 6 6 5 3 2 1 1 1 1 1 1 2 3 3 3 3 3 2 3 3 3 4 4 3 2 3 3 4 5 6 6 6 6 7 7 7
2 3 3 2 3 1 3 2 3 1 4 6 6 5 4 4 3 2 2 2 2 2 1 1 3 3 3 3 2 2 2 3 3 3 3 4 4 3 3 3 4 5 6 6 6 6 6 5 6
3 4 3 1 1 2 4 2 1 3 5 5 4 3 3 2 2 3 3 3 3 2 2 2 3 3 3 3 2 2 3 3 3 3 4 4 4 4 4 3 3 4 6 7 7 7 6 5 5
4 4 2 3 0 1 4 1 2 4 6 5 3 2 2 2 3 3 3 3 3 3 2 1 2 3 3 3 2 3 3 3 3 3 4 4 4 5 5 4 3 5 6 6 5 5 5 5 5
4 2 1 3 0 2 3 3 2 4 6 5 4 4 3 3 3 3 3 3 4 3 3 2 3 3 3 3 3 4 4 3 3 3 3 4 4 5 6 4 4 6 5 4 4 4 4 5 5
2 2 1 2 2 3 1 3 2 3 5 5 4 4 5 5 5 3 3 2 3 3 3 3 3 3 3 3 3 3 4 3 4 4 3 4 4 5 6 5 4 5 4 4 4 5 5 4 4
4 3 1 3 1 3 2 2 3 2 3 4 4 5 5 5 3 2 2 3 3 2 2 2 3 3 3 2 2 2 2 2 2 3 4 4 4 5 5 4 4 4 4 4 5 4 5 3 2
3 2 1 2 1 2 1 2 2 2 3 5 5 6 6 4 3 3 3 3 3 3 2 2 3 3 3 2 2 2 2 1 1 2 4 4 4 4 5 4 3 3 4 4 4 4 3 2 2
2 4 3 2 2 3 2 4 3 2 1 1 2 3 4 6 6 4 4 4 3 4 3 3 3 2 2 3 3 3 3 3 3 3 3 3 3 3 4 4 4 4 3 3 3 3 3 2 2
2 3 4 3 3 1 1 2 5 3 2 2 3 3 5 5 4 5 5 4 4 4 3 3 2 2 2 3 3 4 2 1 0 0 1 2 3 3 3 4 4 3 3 3 2 2 2 3 2
3 1 3 2 3 1 2 1 6 3 3 6 6 5 5 5 5 6 6 5 4 3 3 3 3 2 2 3 3 4 3 2 1 1 2 2 3 3 3 3 4 3 2 2 2 2 2 2 2
4 6 6 5 4 1 2 3 4 3 5 5 4 4 5 5 4 5 4 4 3 3 3 3 3 2 2 3 3 4 4 3 3 1 1 1 1 2 2 3 3 3 2 2 2 2 3 2 2
5 5 4 4 3 3 1 2 5 4 4 4 5 5 5 4 4 4 4 5 4 4 4 3 4 2 2 3 3 4 4 4 4 3 2 1 0 1 0 2 2 2 2 2 3 3 3 3 3
3 6 6 3 3 3 1 3 5 3 3 1 1 2 3 4 4 4 5 5 5 4 4 4 4 3 3 3 3 3 3 3 3 3 2 2 2 1 1 2 2 2 2 2 3 3 2 2 3
5 3 5 5 2 0 3 4 5 2 4 3 2 2 3 4 4 4 4 4 4 5 5 5 5 4 3 3 2 2 3 3 3 3 2 2 2 1 2 2 2 2 2 3 3 2 2 3 2
4 7 5 4 3 2 3 3 3 4 2 1 1 1 3 3 3 3 3 4 4 4 3 4 4 4 3 3 3 2 2 3 3 3 3 2 2 2 2 2 2 2 2 3 3 2 2 4 2
3 4 4 4 4 4 2 5 4 5 4 3 4 3 3 3 4 4 3 3 3 3 3 3 3 3 2 3 2 2 2 2 2 2 2 3 2 2 2 3 3 3 2 2 2 2 3 3 2
4 5 6 5 3 3 3 5 4 3 4 3 3 3 2 3 3 3 4 3 3 3 2 3 3 2 3 3 3 3 2 2 2 2 2 2 2 2 2 3 3 3 3 3 3 3 3 3 3
Wind_Direction
339 34 64 55 55 55 55 359 15 58 49 31 57 75 85 74 73 112 285 101 119 51 26 43 60 60 64 68 72 73 74 74 77 84 83 81 82 81 79 77 80 82 81 80 82 84 83 82 82
12 56 52 57 75 71 20 348 43 72 132 130 70 68 72 64 60 93 38 157 106 73 49 57 63 62 66 71 73 75 77 78 77 78 80 79 79 81 79 79 79 80 80 81 83 82 81 81 81
60 50 70 64 78 116 129 358 104 81 88 74 66 56 70 64 63 137 213 146 88 53 45 61 70 67 65 68 73 78 80 80 79 79 76 77 79 82 81 79 80 79 80 80 81 81 78 77 81
73 44 53 66 67 54 140 154 138 110 61 47 81 67 55 22 60 141 124 121 96 47 37 48 68 64 62 65 69 76 82 81 78 78 76 75 77 79 79 77 79 80 78 78 81 81 78 79 82
59 70 62 59 42 11 34 119 94 85 57 44 75 84 37 359 65 92 102 107 105 52 27 39 65 60 63 69 71 69 78 80 77 79 80 79 74 75 79 78 79 80 77 76 80 80 78 80 81
54 66 81 85 47 12 8 39 79 76 75 66 78 91 32 15 79 102 106 104 96 66 32 34 50 55 60 67 68 72 76 78 76 79 79 80 77 74 74 79 78 75 76 76 78 77 76 80 81
93 82 100 114 85 34 29 63 84 95 86 86 111 100 56 346 85 102 95 90 76 56 40 29 30 35 46 58 66 71 71 69 70 75 74 73 73 71 70 73 78 78 79 80 78 76 77 84 85
110 96 86 101 113 33 356 77 83 101 103 94 100 129 180 210 127 96 79 58 54 50 35 22 25 32 33 32 51 65 65 64 67 71 74 71 65 61 61 63 74 80 81 81 79 78 77 84 88
84 78 112 172 158 165 76 85 64 77 91 70 60 125 163 132 111 93 74 45 39 36 19 20 23 27 35 37 43 48 52 56 59 61 67 64 55 51 51 57 73 76 75 75 76 79 76 75 80
75 104 170 195 167 150 117 101 123 90 71 68 63 62 97 115 120 120 117 105 51 0 350 21 24 25 38 47 48 40 43 50 52 55 59 60 56 51 55 54 63 67 70 71 72 73 72 71 69
88 132 150 106 146 132 115 93 85 114 104 190 165 147 130 129 132 138 146 149 178 252 355 29 46 50 53 51 57 48 47 50 52 52 54 63 58 49 49 47 43 48 58 62 65 67 69 73 73
95 106 140 136 115 106 124 124 88 109 214 180 154 147 139 143 163 171 169 165 119 75 15 33 64 68 62 69 62 59 54 53 50 45 54 67 61 50 45 48 46 53 62 70 69 75 76 77 76
89 105 87 98 90 93 99 96 116 68 80 104 118 131 146 158 179 185 174 168 165 145 53 65 84 84 75 71 56 63 52 51 54 48 54 76 75 65 58 57 59 61 70 76 77 80 79 76 72
124 103 81 75 89 98 115 79 92 180 120 114 128 146 160 169 178 172 186 198 188 174 131 93 93 95 86 79 69 53 51 57 65 56 56 72 84 85 79 68 63 65 74 81 84 83 80 76 74
93 81 38 12 128 151 117 45 220 184 132 133 148 164 173 193 189 199 204 198 190 178 150 132 125 102 92 83 71 60 58 60 62 60 63 67 80 93 97 82 69 73 85 89 87 81 79 77 72
70 65 20 312 121 136 123 266 253 155 145 161 175 187 199 228 222 223 208 189 175 158 138 126 124 107 97 87 76 68 64 64 60 61 66 69 81 102 99 84 74 83 88 91 89 81 76 69 68
44 75 305 313 270 122 139 241 260 161 160 184 199 208 214 233 242 228 210 188 170 160 141 115 98 102 98 91 79 71 63 55 49 59 61 65 79 100 102 92 88 92 88 79 89 77 81 83 77
191 167 225 271 278 127 147 267 272 187 182 202 213 221 218 222 234 222 195 177 150 140 128 122 103 97 92 83 73 58 50 37 43 50 56 74 93 103 103 98 93 95 87 76 80 85 72 78 83
148 148 211 267 244 140 188 267 276 206 198 217 228 229 228 233 234 194 174 156 129 117 126 136 124 119 109 91 88 78 49 19 24 35 50 73 98 110 109 105 96 94 94 96 96 94 83 70 73
138 148 230 318 24 146 161 304 298 194 208 207 209 217 221 221 215 194 177 168 157 154 152 145 146 144 141 130 117 114 111 66 21 23 47 60 84 108 119 117 120 113 105 97 93 97 97 70 56
168 180 198 205 46 50 61 337 323 280 245 255 230 218 218 213 209 200 189 190 175 175 177 174 171 162 142 122 100 81 61 44 31 28 25 29 66 85 105 120 125 126 121 125 119 112 113 116 50
233 224 184 157 111 325 64 309 307 291 302 276 245 226 223 221 205 198 195 194 195 195 174 165 163 154 136 128 127 125 124 120 233 5 21 31 57 71 89 108 121 121 120 130 139 126 124 125 118
196 91 112 122 132 45 28 145 299 330 293 274 253 233 224 217 204 202 198 192 186 176 167 167 150 145 141 139 139 132 131 141 108 70 62 45 41 61 85 105 115 115 118 128 120 112 120 129 134
130 74 59 52 74 351 258 168 290 269 257 276 259 235 222 212 200 194 182 163 162 155 156 157 151 161 161 155 149 151 154 147 124 110 89 43 30 36 71 107 111 117 120 127 125 119 122 125 122
88 88 41 11 18 264 243 167 253 272 262 243 238 228 212 193 183 180 175 176 174 167 167 166 162 178 181 172 176 178 174 166 168 174 169 156 90 23 9 104 113 115 129 129 120 116 115 121 123
150 136 151 186 218 282 332 230 260 297 306 292 230 185 170 174 183 186 187 185 181 179 176 173 175 186 191 188 196 193 183 176 180 182 175 178 184 200 176 123 114 114 130 132 120 111 111 114 114
135 152 159 133 139 299 287 290 308 14 18 28 52 91 176 186 187 190 183 177 180 183 187 184 180 184 192 191 186 191 191 184 182 178 175 184 190 181 149 134 122 108 106 114 116 108 108 107 100
129 141 107 121 149 237 295 290 272 292 295 332 10 231 221 191 181 187 189 185 182 183 182 173 181 187 188 182 185 189 187 187 176 162 175 185 191 165 148 144 138 121 114 110 111 107 103 102 90
108 109 118 125 150 159 239 274 234 227 218 212 227 225 212 191 187 188 187 184 170 155 152 161 172 177 185 186 181 172 177 166 157 164 186 190 182 172 173 162 152 149 142 131 132 129 124 114 97
167 166 150 155 198 172 175 261 278 233 221 201 214 221 210 187 179 175 167 153 145 154 159 168 176 182 196 191 180 178 171 155 157 180 193 180 180 176 170 150 148 154 151 145 153 145 129 131 128
Height
1500 1499 1499 1501 1505 1518 1523 1520 1516 1516 1516 1517 1516 1516 1518 1521 1524 1529 1525 1523 1523 1523 1522 1522 1521 1521 1520 1520 1519 1519 1519 1519 1519 1519 1519 1518 1518 1518 1519 1519 1519 1519 1519 1520 1520 1521 1521 1522 1522
1501 1501 1502 1502 1515 1529 1527 1519 1518 1516 1517 1517 1517 1518 1519 1522 1523 1524 1523 1523 1524 1524 1523 1523 1522 1522 1521 1521 1520 1520 1520 1520 1520 1520 1520 1520 1520 1520 1520 1520 1520 1520 1521 1521 1522 1522 1523 1523 1524
1501 1502 1504 1508 1520 1528 1525 1519 1518 1517 1517 1517 1519 1520 1522 1523 1524 1524 1524 1525 1525 1525 1525 1524 1523 1523 1522 1522 1522 1522 1522 1522 1521 1521 1522 1522 1522 1521 1521 1522 1522 1522 1522 1523 1523 1523 1524 1525 1525
1503 1504 1506 1516 1523 1521 1519 1518 1517 1517 1518 1519 1520 1522 1524 1525 1525 1525 1525 1526 1526 1526 1526 1525 1524 1524 1524 1523 1523 1523 1523 1523 1523 1523 1523 1523 1523 1523 1523 1523 1523 1523 1524 1524 1525 1525 1525 1526 1526
1504 1506 1515 1524 1523 1520 1518 1518 1518 1518 1520 1521 1521 1524 1525 1526 1526 1526 1526 1527 1527 1527 1527 1526 1526 1525 1525 1525 1525 1525 1525 1525 1525 1525 1525 1525 1525 1525 1524 1524 1524 1525 1525 1525 1526 1526 1527 1527 1528
1506 1509 1525 1531 1526 1521 1519 1518 1519 1520 1521 1522 1523 1525 1526 1527 1527 1528 1528 1528 1529 1528 1528 1528 1528 1527 1527 1527 1526 1526 1526 1526 1526 1526 1526 1526 1526 1526 1526 1526 1526 1526 1527 1527 1527 1528 1528 1529 1529
1508 1515 1526 1527 1527 1523 1521 1520 1520 1521 1522 1524 1524 1526 1527 1528 1528 1529 1529 1530 1530 1530 1530 1529 1529 1529 1529 1528 1528 1528 1528 1528 1528 1528 1528 1527 1527 1527 1527 1528 1528 1528 1528 1528 1529 1529 1529 1530 1530
1509 1516 1525 1527 1527 1525 1521 1521 1522 1522 1524 1525 1525 1526 1527 1528 1529 1529 1530 1531 1531 1531 1531 1531 1531 1530 1530 1530 1530 1530 1530 1529 1529 1529 1529 1529 1529 1529 1529 1529 1529 1529 1530 1530 1530 1530 1531 1531 1531
1510 1521 1529 1526 1525 1524 1521 1522 1523 1524 1524 1525 1526 1526 1527 1528 1529 1530 1531 1532 1532 1532 1532 1532 1532 1532 1532 1532 1531 1531 1531 1531 1531 1531 1531 1531 1531 1531 1531 1531 1531 1531 1531 1532 1532 1532 1532 1532 1533
1512 1525 1523 1521 1521 1521 1522 1522 1524 1525 1525 1526 1526 1527 1528 1529 1530 1531 1532 1532 1533 1533 1533 1534 1533 1533 1533 1533 1533 1533 1533 1533 1532 1532 1532 1533 1533 1533 1532 1533 1533 1533 1533 1533 1533 1533 1534 1534 1534
1514 1521 1520 1520 1520 1521 1522 1523 1524 1525 1526 1526 1526 1527 1528 1529 1530 1532 1532 1533 1534 1534 1534 1535 1535 1535 1535 1535 1534 1534 1534 1534 1534 1534 1534 1534 1534 1534 1534 1534 1535 1535 1535 1535 1535 1535 1535 1535 1536
1517 1519 1519 1520 1520 1521 1522 1524 1525 1526 1527 1526 1527 1528 1529 1530 1531 1532 1533 1534 1535 1535 1536 1536 1536 1536 1536 1536 1536 1536 1536 1536 1535 1535 1535 1536 1536 1536 1536 1536 1536 1536 1536 1536 1536 1537 1537 1537 1537
1518 1520 1520 1521 1522 1522 1523 1524 1525 1526 1527 1527 1528 1529 1530 1531 1532 1534 1535 1535 1536 1536 1537 1537 1537 1537 1537 1537 1537 1537 1537 1537 1537 1537 1537 1537 1537 1538 1538 1537 1538 1538 1538 1538 1538 1538 1538 1538 1539
1519 1520 1521 1522 1522 1523 1524 1526 1526 1527 1527 1528 1529 1530 1531 1532 1533 1534 1535 1536 1536 1537 1537 1538 1538 1538 1539 1539 1539 1539 1539 1538 1539 1539 1539 1539 1539 1539 1539 1539 1539 1539 1539 1539 1539 1540 1540 1540 1540
1520 1522 1523 1523 1523 1524 1525 1528 1527 1526 1527 1528 1529 1531 1532 1533 1534 1535 1536 1536 1537 1538 1538 1539 1539 1539 1540 1540 1540 1540 1540 1540 1540 1540 1540 1540 1540 1540 1540 1540 1540 1540 1540 1541 1541 1541 1541 1542 1542
1521 1527 1531 1525 1523 1524 1528 1533 1526 1526 1527 1528 1530 1531 1532 1533 1534 1535 1536 1537 1537 1538 1539 1539 1540 1540 1541 1541 1541 1541 1541 1541 1541 1541 1541 1541 1541 1541 1541 1541 1541 1541 1542 1542 1542 1543 1543 1543 1543
1528 1534 1533 1528 1523 1524 1527 1530 1526 1526 1527 1528 1530 1531 1532 1533 1534 1535 1536 1537 1538 1538 1539 1540 1541 1541 1541 1542 1542 1542 1542 1542 1542 1542 1542 1542 1542 1542 1542 1542 1542 1543 1543 1543 1544 1544 1544 1544 1544
1533 1533 1532 1531 1525 1526 1529 1529 1527 1527 1528 1528 1529 1530 1531 1532 1533 1534 1536 1537 1538 1539 1540 1541 1541 1542 1542 1542 1543 1543 1543 1543 1543 1543 1543 1543 1543 1543 1543 1544 1544 1544 1545 1545 1545 1546 1546 1546 1546
1526 1530 1532 1529 1524 1527 1529 1529 1527 1527 1528 1528 1529 1529 1530 1531 1533 1534 1535 1537 1538 1539 1540 1541 1541 1542 1542 1543 1544 1544 1544 1544 1544 1544 1544 1544 1544 1544 1544 1545 1545 1546 1546 1546 1547 1547 1547 1547 1548
1525 1530 1531 1528 1524 1527 1530 1530 1527 1526 1527 1527 1527 1528 1529 1531 1532 1534 1535 1536 1537 1539 1540 1541 1541 1542 1543 1544 1544 1545 1545 1545 1545 1545 1545 1545 1546 1546 1546 1546 1546 1547 1547 1548 1548 1548 1549 1549 1549
1526 1529 1529 1529 1526 1527 1530 1534 1529 1526 1526 1526 1526 1527 1528 1529 1531 1533 1534 1535 1537 1538 1539 1540 1541 1542 1543 1544 1545 1545 1546 1546 1546 1546 1546 1546 1547 1547 1547 1548 1548 1548 1548 1549 1549 1549 1550 1550 1551
1528 1522 1523 1526 1533 1539 1535 1547 1534 1528 1527 1525 1525 1525 1526 1528 1530 1532 1533 1534 1536 1538 1539 1540 1541 1542 1543 1544 1545 1545 1546 1546 1547 1547 1547 1547 1548 1548 1548 1549 1549 1549 1549 1550 1550 1550 1551 1551 1551
1522 1520 1523 1526 1533 1540 1539 1546 1540 1530 1529 1525 1523 1523 1524 1526 1528 1530 1532 1534 1535 1537 1539 1540 1541 1542 1543 1544 1545 1545 1546 1547 1547 1548 1548 1548 1548 1549 1549 1550 1550 1550 1550 1550 1551 1551 1551 1551 1552
1519 1524 1528 1534 1539 1549 1542 1546 1544 1534 1528 1523 1521 1521 1522 1524 1526 1529 1531 1533 1535 1536 1538 1539 1541 1542 1543 1543 1544 1545 1546 1546 1547 1548 1548 1549 1549 1549 1550 1550 1550 1551 1551 1551 1551 1551 1551 1552 1552
1521 1534 1548 1549 1555 1553 1540 1543 1540 1525 1522 1520 1519 1519 1520 1522 1525 1527 1530 1532 1533 1535 1537 1538 1539 1541 1542 1543 1544 1544 1545 1546 1547 1548 1548 1549 1549 1549 1550 1550 1551 1551 1551 1551 1551 1551 1552 1552 1552
1524 1530 1548 1556 1557 1552 1541 1544 1533 1522 1519 1518 1518 1518 1519 1521 1524 1526 1528 1531 1532 1534 1536 1537 1539 1540 1541 1542 1543 1544 1545 1546 1547 1548 1548 1549 1549 1550 1550 1550 1551 1551 1551 1552 1552 1552 1552 1552 1552
1525 1530 1531 1544 1547 1552 1546 1538 1527 1520 1519 1518 1518 1518 1519 1521 1523 1526 1528 1530 1532 1533 1535 1537 1538 1539 1540 1542 1542 1543 1544 1545 1546 1547 1548 1549 1549 1550 1550 1551 1551 1551 1551 1552 1552 1552 1552 1552 1552
1518 1525 1536 1543 1553 1556 1547 1542 1537 1525 1521 1519 1518 1518 1519 1521 1523 1525 1527 1529 1531 1533 1534 1536 1537 1539 1540 1541 1541 1542 1543 1544 1545 1546 1547 1548 1549 1549 1550 1550 1550 1551 1551 1551 1551 1551 1552 1552 1552
1523 1527 1533 1541 1543 1553 1555 1547 1524 1521 1519 1519 1518 1518 1518 1520 1522 1524 1526 1528 1530 1532 1533 1534 1536 1537 1538 1539 1540 1541 1542 1543 1544 1545 1546 1547 1548 1549 1549 1550 1550 1550 1550 1550 1551 1551 1551 1551 1552
1516 1521 1529 1539 1544 1546 1550 1544 1518 1517 1516 1516 1516 1517 1518 1519 1521 1523 1525 1527 1528 1530 1532 1533 1534 1535 1537 1538 1539 1540 1541 1542 1543 1544 1545 1546 1547 1548 1548 1548 1549 1549 1549 1550 1550 1550 1551 1551 1551